Location: Unspecified
(0.0000°N, 0.0000°E)
Time: 01:18:59
(UTC+00:00)

Envisat - Pass Details

Date: 29 June 2022
Orbit: 764 x 765 km, 98.2° (Epoch: 28 June)

Event Time Altitude Azimuth Distance (km) Brightness Sun altitude
Rises 03:52:16 0° 19° (NNE) 3,213 6.8 -29.9°
Reaches altitude 10° 03:54:35 10° 23° (NNE) 2,290 6.0 -29.3°
Maximum altitude 03:59:33 59° 102° (ESE) 876 3.4 -28.2°
Enters shadow 04:00:16 54° 138° (SE) 928 3.4 -28.1°
